Weather History for Shelbyville, IN

Change the Weather History Date:

Thursday, March 6, 2014

  Actual Average Record
Temperature  
Mean Temperature 33 °F 38 °F  
Max Temperature 45 °F 47 °F 67 °F (2009)
Min Temperature 21 °F 28 °F 16 °F (2007)
Degree Days  
Heating Degree Days 32 27  
Month to date heating degree days 232 169  
Since 1 July heating degree days 4730 4332  
Cooling Degree Days 0 0  
Month to date cooling degree days 0 0  
Year to date cooling degree days 0 0  
Moisture  
Dew Point 19 °F    
Average Humidity 60    
Maximum Humidity 75    
Minimum Humidity 45    
Precipitation  
Precipitation 0.00 in 0.08 in 0.63 in (1999)
Month to date precipitation 0.19 0.49  
Year to date precipitation 4.07 5.24  
Sea Level Pressure  
Sea Level Pressure 30.25 in    
Wind  
Wind Speed 9 mph (NE)    
Max Wind Speed 15 mph    
Max Gust Speed 20 mph    
Visibility 10 miles    
Events      
T = Trace of Precipitation, MM = Missing Value Source: NWS Daily Summary

Daily Weather History Graph

Daily Weather History Graph

Search for Another Location

Airport:

Trip Planner

Search our weather history database for the weather conditions in past years. The results will help you decide how hot, cold, wet, or windy it might be!

Date:

Astronomy

Mar. 06, 2014 Rise Set
Actual Time 7:08 AM EST 6:40 PM EST
Civil Twilight 6:41 AM EST 7:07 PM EST
Nautical Twilight 6:10 AM EST 7:38 PM EST
Astronomical Twilight 5:39 AM EST 8:10 PM EST
Moon 10:17 AM EST (3/6) No Moon Set
Length of Visible Light 12h 25m
Length of Day
11h 32m
Waxing Crescent, 32% of the Moon is Illuminated
Mar 6
Waxing Crescent
Mar 8
First Quarter
Mar 16
Full
Mar 23
Last Quarter
Mar 30
New

Hourly Weather History & Observations

Time (EST) Temp. Windchill Dew Point Humidity Pressure Visibility Wind Dir Wind Speed Gust Speed Precip Events Conditions
12:53 AM 23.0 °F 11.1 °F 15.1 °F 72% 30.36 in 10.0 mi ENE 12.7 mph - N/A   Clear
1:53 AM 23.0 °F 11.7 °F 14.0 °F 68% 30.35 in 10.0 mi NE 11.5 mph - N/A   Clear
2:53 AM 21.9 °F 10.4 °F 12.9 °F 68% 30.33 in 10.0 mi NE 11.5 mph - N/A   Clear
3:53 AM 21.0 °F 9.9 °F 12.0 °F 68% 30.33 in 10.0 mi NE 10.4 mph - N/A   Clear
4:53 AM 21.0 °F 10.6 °F 12.0 °F 68% 30.33 in 10.0 mi NE 9.2 mph - N/A   Clear
5:53 AM 21.0 °F 9.3 °F 12.0 °F 68% 30.32 in 10.0 mi ENE 11.5 mph - N/A   Clear
6:53 AM 21.0 °F 9.9 °F 12.0 °F 68% 30.32 in 10.0 mi ENE 10.4 mph - N/A   Clear
7:53 AM 21.0 °F 9.9 °F 12.9 °F 71% 30.33 in 10.0 mi ENE 10.4 mph - N/A   Clear
8:53 AM 24.1 °F 11.5 °F 14.0 °F 65% 30.32 in 10.0 mi ENE 15.0 mph - N/A   Clear
9:53 AM 28.0 °F 20.0 °F 16.0 °F 61% 30.32 in 10.0 mi ENE 8.1 mph - N/A   Clear
10:53 AM 30.9 °F 24.3 °F 17.1 °F 57% 30.28 in 10.0 mi ENE 6.9 mph - N/A   Clear
11:53 AM 33.1 °F 26.9 °F 19.0 °F 56% 30.29 in 10.0 mi East 6.9 mph - N/A   Clear
12:53 PM 39.0 °F 35.7 °F 21.0 °F 49% 30.25 in 10.0 mi NNE 4.6 mph - N/A   Clear
1:53 PM 39.9 °F 34.5 °F 21.0 °F 47% 30.23 in 10.0 mi NE 8.1 mph - N/A   Clear
2:53 PM 42.1 °F 38.4 °F 23.0 °F 47% 30.20 in 10.0 mi ENE 5.8 mph - N/A   Clear
3:53 PM 44.1 °F 40.8 °F 24.1 °F 45% 30.18 in 10.0 mi ENE 5.8 mph - N/A   Clear
4:53 PM 44.1 °F 38.6 °F 25.0 °F 47% 30.15 in 10.0 mi ENE 10.4 mph - N/A   Clear
5:53 PM 43.0 °F 38.2 °F 26.1 °F 51% 30.14 in 10.0 mi NE 8.1 mph - N/A   Clear
6:53 PM 39.0 °F 34.8 °F 25.0 °F 57% 30.14 in 10.0 mi NE 5.8 mph - N/A   Clear
7:53 PM 37.9 °F 32.7 °F 25.0 °F 60% 30.15 in 10.0 mi NE 6.9 mph - N/A   Clear
8:53 PM 36.0 °F 32.1 °F 25.0 °F 64% 30.15 in 10.0 mi NE 4.6 mph - N/A   Clear
9:53 PM 33.1 °F 25.5 °F 26.1 °F 75% 30.14 in 7.0 mi ENE 9.2 mph - N/A   Clear
10:53 PM 32.0 °F 27.5 °F 25.0 °F 75% 30.14 in 6.0 mi North 4.6 mph - N/A   Haze
11:53 PM 30.9 °F 25.2 °F 25.0 °F 79% 30.13 in 6.0 mi North 5.8 mph - N/A   Haze